Year,Month,Day,Hour,Minute,Value (Times are PST for temperature in C)
2014,05,20,00,00,11.30
2014,05,20,00,01,11.30
2014,05,20,00,02,11.20
2014,05,20,00,03,11.20
2014,05,20,00,04,11.20
2014,05,20,00,05,11.20
2014,05,20,00,06,11.20
2014,05,20,00,07,11.20
2014,05,20,00,08,11.20
2014,05,20,00,09,11.20
2014,05,20,00,10,11.20
2014,05,20,00,11,11.20
2014,05,20,00,12,11.20
2014,05,20,00,13,11.20
2014,05,20,00,14,11.20
2014,05,20,00,15,11.20
2014,05,20,00,16,11.20
2014,05,20,00,17,11.20
2014,05,20,00,18,11.20
2014,05,20,00,19,11.20
2014,05,20,00,20,11.20
2014,05,20,00,21,11.10
2014,05,20,00,22,11.10
2014,05,20,00,23,11.10
2014,05,20,00,24,11.10
2014,05,20,00,25,11.10
2014,05,20,00,26,11.00
2014,05,20,00,27,11.00
2014,05,20,00,28,10.90
2014,05,20,00,29,10.90
2014,05,20,00,30,10.80
2014,05,20,00,31,10.80
2014,05,20,00,32,10.80
2014,05,20,00,33,10.80
2014,05,20,00,34,10.70
2014,05,20,00,35,10.70
2014,05,20,00,36,10.70
2014,05,20,00,37,10.70
2014,05,20,00,38,10.70
2014,05,20,00,39,10.60
2014,05,20,00,40,10.60
2014,05,20,00,41,10.60
2014,05,20,00,42,10.60
2014,05,20,00,43,10.60
2014,05,20,00,44,10.60
2014,05,20,00,45,10.60
2014,05,20,00,46,10.60
2014,05,20,00,47,10.60
2014,05,20,00,48,10.60
2014,05,20,00,49,10.60
2014,05,20,00,50,10.60
2014,05,20,00,51,10.60
2014,05,20,00,52,10.60
2014,05,20,00,53,10.60
2014,05,20,00,54,10.60
2014,05,20,00,55,10.60
2014,05,20,00,56,10.60
2014,05,20,00,57,10.60
2014,05,20,00,58,10.60
2014,05,20,00,59,10.60
2014,05,20,01,00,10.60
2014,05,20,01,01,10.60
2014,05,20,01,02,10.60
2014,05,20,01,03,10.60
2014,05,20,01,04,10.60
2014,05,20,01,05,10.60
2014,05,20,01,06,10.60
2014,05,20,01,07,10.60
2014,05,20,01,08,10.60
2014,05,20,01,09,10.60
2014,05,20,01,10,10.60
2014,05,20,01,11,10.50
2014,05,20,01,12,10.50
2014,05,20,01,13,10.50
2014,05,20,01,14,10.50
2014,05,20,01,15,10.50
2014,05,20,01,16,10.40
2014,05,20,01,17,10.40
2014,05,20,01,18,10.40
2014,05,20,01,19,10.40
2014,05,20,01,20,10.40
2014,05,20,01,21,10.30
2014,05,20,01,22,10.30
2014,05,20,01,23,10.30
2014,05,20,01,24,10.20
2014,05,20,01,25,10.20
2014,05,20,01,26,10.10
2014,05,20,01,27,10.10
2014,05,20,01,28,10.10
2014,05,20,01,29,10.10
2014,05,20,01,30,10.00
2014,05,20,01,31,10.00
2014,05,20,01,32,10.00
2014,05,20,01,33,9.90
2014,05,20,01,34,9.90
2014,05,20,01,35,9.90
2014,05,20,01,36,9.90
2014,05,20,01,37,9.90
2014,05,20,01,38,9.90
2014,05,20,01,39,9.90
2014,05,20,01,40,9.90
2014,05,20,01,41,9.90
2014,05,20,01,42,9.90
2014,05,20,01,43,9.90
2014,05,20,01,44,9.90
2014,05,20,01,45,9.90
2014,05,20,01,46,9.90
2014,05,20,01,47,9.80
2014,05,20,01,48,9.80
2014,05,20,01,49,9.80
2014,05,20,01,50,9.80
2014,05,20,01,51,9.80
2014,05,20,01,52,9.80
2014,05,20,01,53,9.80
2014,05,20,01,54,9.80
2014,05,20,01,55,9.80
2014,05,20,01,56,9.80
2014,05,20,01,57,9.80
2014,05,20,01,58,9.80
2014,05,20,01,59,9.80
2014,05,20,02,00,9.80
2014,05,20,02,01,9.80
2014,05,20,02,02,9.80
2014,05,20,02,03,9.80
2014,05,20,02,04,9.80
2014,05,20,02,05,9.80
2014,05,20,02,06,9.80
2014,05,20,02,07,9.80
2014,05,20,02,08,9.80
2014,05,20,02,09,9.70
2014,05,20,02,10,9.70
2014,05,20,02,11,9.70
2014,05,20,02,12,9.70
2014,05,20,02,13,9.70
2014,05,20,02,14,9.70
2014,05,20,02,15,9.70
2014,05,20,02,16,9.70
2014,05,20,02,17,9.70
2014,05,20,02,18,9.70
2014,05,20,02,19,9.70
2014,05,20,02,20,9.70
2014,05,20,02,21,9.70
2014,05,20,02,22,9.70
2014,05,20,02,23,9.60
2014,05,20,02,24,9.60
2014,05,20,02,25,9.60
2014,05,20,02,26,9.60
2014,05,20,02,27,9.50
2014,05,20,02,28,9.50
2014,05,20,02,29,9.50
2014,05,20,02,30,9.40
2014,05,20,02,31,9.40
2014,05,20,02,32,9.40
2014,05,20,02,33,9.40
2014,05,20,02,34,9.40
2014,05,20,02,35,9.40
2014,05,20,02,36,9.40
2014,05,20,02,37,9.40
2014,05,20,02,38,9.30
2014,05,20,02,39,9.30
2014,05,20,02,40,9.30
2014,05,20,02,41,9.30
2014,05,20,02,42,9.30
2014,05,20,02,43,9.20
2014,05,20,02,44,9.20
2014,05,20,02,45,9.20
2014,05,20,02,46,9.20
2014,05,20,02,47,9.10
2014,05,20,02,48,9.10
2014,05,20,02,49,9.20
2014,05,20,02,50,9.20
2014,05,20,02,51,9.20
2014,05,20,02,52,9.20
2014,05,20,02,53,9.20
2014,05,20,02,54,9.20
2014,05,20,02,55,9.20
2014,05,20,02,56,9.20
2014,05,20,02,57,9.20
2014,05,20,02,58,9.20
2014,05,20,02,59,9.20
2014,05,20,03,00,9.20
2014,05,20,03,01,9.20
2014,05,20,03,02,9.20
2014,05,20,03,03,9.20
2014,05,20,03,04,9.20
2014,05,20,03,05,9.20
2014,05,20,03,06,9.20
2014,05,20,03,07,9.20
2014,05,20,03,08,9.20
2014,05,20,03,09,9.20
2014,05,20,03,10,9.20
2014,05,20,03,11,9.20
2014,05,20,03,12,9.20
2014,05,20,03,13,9.10
2014,05,20,03,14,9.10
2014,05,20,03,15,9.10
2014,05,20,03,16,9.00
2014,05,20,03,17,9.00
2014,05,20,03,18,8.90
2014,05,20,03,19,8.90
2014,05,20,03,20,8.90
2014,05,20,03,21,8.90
2014,05,20,03,22,8.90
2014,05,20,03,23,8.90
2014,05,20,03,24,8.80
2014,05,20,03,25,8.80
2014,05,20,03,26,8.80
2014,05,20,03,27,8.80
2014,05,20,03,28,8.80
2014,05,20,03,29,8.80
2014,05,20,03,30,8.80
2014,05,20,03,31,8.80
2014,05,20,03,32,8.80
2014,05,20,03,33,8.80
2014,05,20,03,34,8.80
2014,05,20,03,35,8.80
2014,05,20,03,36,8.80
2014,05,20,03,37,8.80
2014,05,20,03,38,8.80
2014,05,20,03,39,8.80
2014,05,20,03,40,8.80
2014,05,20,03,41,8.80
2014,05,20,03,42,8.80
2014,05,20,03,43,8.80
2014,05,20,03,44,8.80
2014,05,20,03,45,8.80
2014,05,20,03,46,8.70
2014,05,20,03,47,8.70
2014,05,20,03,48,8.70
2014,05,20,03,49,8.70
2014,05,20,03,50,8.70
2014,05,20,03,51,8.70
2014,05,20,03,52,8.70
2014,05,20,03,53,8.60
2014,05,20,03,54,8.60
2014,05,20,03,55,8.70
2014,05,20,03,56,8.70
2014,05,20,03,57,8.70
2014,05,20,03,58,8.70
2014,05,20,03,59,8.70
2014,05,20,04,00,8.70
2014,05,20,04,01,8.70
2014,05,20,04,02,8.70
2014,05,20,04,03,8.70
2014,05,20,04,04,8.70
2014,05,20,04,05,8.70
2014,05,20,04,06,8.70
2014,05,20,04,07,8.60
2014,05,20,04,08,8.60
2014,05,20,04,09,8.60
2014,05,20,04,10,8.60
2014,05,20,04,11,8.60
2014,05,20,04,12,8.60
2014,05,20,04,13,8.60
2014,05,20,04,14,8.60
2014,05,20,04,15,8.60
2014,05,20,04,16,8.50
2014,05,20,04,17,8.50
2014,05,20,04,18,8.50
2014,05,20,04,19,8.50
2014,05,20,04,20,8.60
2014,05,20,04,21,8.60
2014,05,20,04,22,8.60
2014,05,20,04,23,8.60
2014,05,20,04,24,8.60
2014,05,20,04,25,8.60
2014,05,20,04,26,8.60
2014,05,20,04,27,8.60
2014,05,20,04,28,8.60
2014,05,20,04,29,8.50
2014,05,20,04,30,8.50
2014,05,20,04,31,8.50
2014,05,20,04,32,8.50
2014,05,20,04,33,8.40
2014,05,20,04,34,8.40
2014,05,20,04,35,8.40
2014,05,20,04,36,8.40
2014,05,20,04,37,8.30
2014,05,20,04,38,8.30
2014,05,20,04,39,8.30
2014,05,20,04,40,8.30
2014,05,20,04,41,8.30
2014,05,20,04,42,8.30
2014,05,20,04,43,8.30
2014,05,20,04,44,8.30
2014,05,20,04,45,8.30
2014,05,20,04,46,8.30
2014,05,20,04,47,8.30
2014,05,20,04,48,8.30
2014,05,20,04,49,8.30
2014,05,20,04,50,8.30
2014,05,20,04,51,8.30
2014,05,20,04,52,8.30
2014,05,20,04,53,8.30
2014,05,20,04,54,8.30
2014,05,20,04,55,8.30
2014,05,20,04,56,8.30
2014,05,20,04,57,8.30
2014,05,20,04,58,8.30
2014,05,20,04,59,8.30
2014,05,20,05,00,8.30
2014,05,20,05,01,8.20
2014,05,20,05,02,8.30
2014,05,20,05,03,8.30
2014,05,20,05,04,8.20
2014,05,20,05,05,8.20
2014,05,20,05,06,8.20
2014,05,20,05,07,8.20
2014,05,20,05,08,8.20
2014,05,20,05,09,8.20
2014,05,20,05,10,8.20
2014,05,20,05,11,8.10
2014,05,20,05,12,8.10
2014,05,20,05,13,8.10
2014,05,20,05,14,8.10
2014,05,20,05,15,8.00
2014,05,20,05,16,8.00
2014,05,20,05,17,8.00
2014,05,20,05,18,8.00
2014,05,20,05,19,8.00
2014,05,20,05,20,7.90
2014,05,20,05,21,7.90
2014,05,20,05,22,7.90
2014,05,20,05,23,7.90
2014,05,20,05,24,7.90
2014,05,20,05,25,7.90
2014,05,20,05,26,8.00
2014,05,20,05,27,8.00
2014,05,20,05,28,8.00
2014,05,20,05,29,8.00
2014,05,20,05,30,8.00
2014,05,20,05,31,8.00
2014,05,20,05,32,8.00
2014,05,20,05,33,8.00
2014,05,20,05,34,8.00
2014,05,20,05,35,8.00
2014,05,20,05,36,8.10
2014,05,20,05,37,8.10
2014,05,20,05,38,8.10
2014,05,20,05,39,8.20
2014,05,20,05,40,8.20
2014,05,20,05,41,8.20
2014,05,20,05,42,8.20
2014,05,20,05,43,8.20
2014,05,20,05,44,8.20
2014,05,20,05,45,8.20
2014,05,20,05,46,8.20
2014,05,20,05,47,8.20
2014,05,20,05,48,8.20
2014,05,20,05,49,8.10
2014,05,20,05,50,8.10
2014,05,20,05,51,8.10
2014,05,20,05,52,8.00
2014,05,20,05,53,8.00
2014,05,20,05,54,8.00
2014,05,20,05,55,7.90
2014,05,20,05,56,7.90
2014,05,20,05,57,7.90
2014,05,20,05,58,7.80
2014,05,20,05,59,7.80
2014,05,20,06,00,7.80
2014,05,20,06,01,7.80
2014,05,20,06,02,7.80
2014,05,20,06,03,7.80
2014,05,20,06,04,7.80
2014,05,20,06,05,7.80
2014,05,20,06,06,7.80
2014,05,20,06,07,7.80
2014,05,20,06,08,7.80
2014,05,20,06,09,7.80
2014,05,20,06,10,7.80
2014,05,20,06,11,7.90
2014,05,20,06,12,7.90
2014,05,20,06,13,7.90
2014,05,20,06,14,7.90
2014,05,20,06,15,7.90
2014,05,20,06,16,7.90
2014,05,20,06,17,7.90
2014,05,20,06,18,7.90
2014,05,20,06,19,7.90
2014,05,20,06,20,7.90
2014,05,20,06,21,7.90
2014,05,20,06,22,7.90
2014,05,20,06,23,8.00
2014,05,20,06,24,8.00
2014,05,20,06,25,8.00
2014,05,20,06,26,8.00
2014,05,20,06,27,8.10
2014,05,20,06,28,8.10
2014,05,20,06,29,8.10
2014,05,20,06,30,8.20
2014,05,20,06,31,8.20
2014,05,20,06,32,8.30
2014,05,20,06,33,8.30
2014,05,20,06,34,8.40
2014,05,20,06,35,8.50
2014,05,20,06,36,8.50
2014,05,20,06,37,8.60
2014,05,20,06,38,8.70
2014,05,20,06,39,8.80
2014,05,20,06,40,8.80
2014,05,20,06,41,8.90
2014,05,20,06,42,9.00
2014,05,20,06,43,9.10
2014,05,20,06,44,9.20
2014,05,20,06,45,9.30
2014,05,20,06,46,9.30
2014,05,20,06,47,9.40
2014,05,20,06,48,9.50
2014,05,20,06,49,9.60
2014,05,20,06,50,9.70
2014,05,20,06,51,9.70
2014,05,20,06,52,9.80
2014,05,20,06,53,9.80
2014,05,20,06,54,9.90
2014,05,20,06,55,10.00
2014,05,20,06,56,10.10
2014,05,20,06,57,10.20
2014,05,20,06,58,10.30
2014,05,20,06,59,10.40
2014,05,20,07,00,10.50
2014,05,20,07,01,10.60
2014,05,20,07,02,10.70
2014,05,20,07,03,10.80
2014,05,20,07,04,10.90
2014,05,20,07,05,10.90
2014,05,20,07,06,11.00
2014,05,20,07,07,11.10
2014,05,20,07,08,11.20
2014,05,20,07,09,11.30
2014,05,20,07,10,11.30
2014,05,20,07,11,11.40
2014,05,20,07,12,11.50
2014,05,20,07,13,11.70
2014,05,20,07,14,11.80
2014,05,20,07,15,11.90
2014,05,20,07,16,12.00
2014,05,20,07,17,12.10
2014,05,20,07,18,12.20
2014,05,20,07,19,12.30
2014,05,20,07,20,12.40
2014,05,20,07,21,12.60
2014,05,20,07,22,12.70
2014,05,20,07,23,12.80
2014,05,20,07,24,12.90
2014,05,20,07,25,13.00
2014,05,20,07,26,13.10
2014,05,20,07,27,13.20
2014,05,20,07,28,13.20
2014,05,20,07,29,13.30
2014,05,20,07,30,13.30
2014,05,20,07,31,13.40
2014,05,20,07,32,13.50
2014,05,20,07,33,13.60
2014,05,20,07,34,13.70
2014,05,20,07,35,13.80
2014,05,20,07,36,13.80
2014,05,20,07,37,13.80
2014,05,20,07,38,13.90
2014,05,20,07,39,13.90
2014,05,20,07,40,14.00
2014,05,20,07,41,14.00
2014,05,20,07,42,14.10
2014,05,20,07,43,14.10
2014,05,20,07,44,14.10
2014,05,20,07,45,14.10
2014,05,20,07,46,14.20
2014,05,20,07,47,14.20
2014,05,20,07,48,14.30
2014,05,20,07,49,14.40
2014,05,20,07,50,14.50
2014,05,20,07,51,14.50
2014,05,20,07,52,14.50
2014,05,20,07,53,14.60
2014,05,20,07,54,14.60
2014,05,20,07,55,14.60
2014,05,20,07,56,14.60
2014,05,20,07,57,14.60
2014,05,20,07,58,14.60
2014,05,20,07,59,14.60
2014,05,20,08,00,14.50
2014,05,20,08,01,14.50
2014,05,20,08,02,14.50
2014,05,20,08,03,14.50
2014,05,20,08,04,14.50
2014,05,20,08,05,14.60
2014,05,20,08,06,14.60
2014,05,20,08,07,14.50
2014,05,20,08,08,14.60
2014,05,20,08,09,14.60
2014,05,20,08,10,14.60
2014,05,20,08,11,14.60
2014,05,20,08,12,14.60
2014,05,20,08,13,14.70
2014,05,20,08,14,14.70
2014,05,20,08,15,14.70
2014,05,20,08,16,14.80
2014,05,20,08,17,14.80
2014,05,20,08,18,14.90
2014,05,20,08,19,15.00
2014,05,20,08,20,15.10
2014,05,20,08,21,15.10
2014,05,20,08,22,15.10
2014,05,20,08,23,15.20
2014,05,20,08,24,15.20
2014,05,20,08,25,15.20
2014,05,20,08,26,15.30
2014,05,20,08,27,15.30
2014,05,20,08,28,15.30
2014,05,20,08,29,15.40
2014,05,20,08,30,15.40
2014,05,20,08,31,15.40
2014,05,20,08,32,15.50
2014,05,20,08,33,15.60
2014,05,20,08,34,15.60
2014,05,20,08,35,15.70
2014,05,20,08,36,15.70
2014,05,20,08,37,15.80
2014,05,20,08,38,15.80
2014,05,20,08,39,15.80
2014,05,20,08,40,15.90
2014,05,20,08,41,15.90
2014,05,20,08,42,16.00
2014,05,20,08,43,16.10
2014,05,20,08,44,16.10
2014,05,20,08,45,16.20
2014,05,20,08,46,16.20
2014,05,20,08,47,16.20
2014,05,20,08,48,16.20
2014,05,20,08,49,16.20
2014,05,20,08,50,16.20
2014,05,20,08,51,16.20
2014,05,20,08,52,16.20
2014,05,20,08,53,16.20
2014,05,20,08,54,16.20
2014,05,20,08,55,16.20
2014,05,20,08,56,16.20
2014,05,20,08,57,16.20
2014,05,20,08,58,16.20
2014,05,20,08,59,16.30
2014,05,20,09,00,16.40
2014,05,20,09,01,16.40
2014,05,20,09,02,16.40
2014,05,20,09,03,16.50
2014,05,20,09,04,16.50
2014,05,20,09,05,16.50
2014,05,20,09,06,16.50
2014,05,20,09,07,16.60
2014,05,20,09,08,16.60
2014,05,20,09,09,16.60
2014,05,20,09,10,16.70
2014,05,20,09,11,16.70
2014,05,20,09,12,16.70
2014,05,20,09,13,16.70
2014,05,20,09,14,16.80
2014,05,20,09,15,16.80
2014,05,20,09,16,16.80
2014,05,20,09,17,16.80
2014,05,20,09,18,16.70
2014,05,20,09,19,16.70
2014,05,20,09,20,16.70
2014,05,20,09,21,16.70
2014,05,20,09,22,16.70
2014,05,20,09,23,16.70
2014,05,20,09,24,16.80
2014,05,20,09,25,16.80
2014,05,20,09,26,16.90
2014,05,20,09,27,16.90
2014,05,20,09,28,16.90
2014,05,20,09,29,17.00
2014,05,20,09,30,17.10
2014,05,20,09,31,17.10
2014,05,20,09,32,17.10
2014,05,20,09,33,17.20
2014,05,20,09,34,17.20
2014,05,20,09,35,17.30
2014,05,20,09,36,17.30
2014,05,20,09,37,17.30
2014,05,20,09,38,17.40
2014,05,20,09,39,17.40
2014,05,20,09,40,17.30
2014,05,20,09,41,17.30
2014,05,20,09,42,17.30
2014,05,20,09,43,17.30
2014,05,20,09,44,17.40
2014,05,20,09,45,17.50
2014,05,20,09,46,17.60
2014,05,20,09,47,17.60
2014,05,20,09,48,17.70
2014,05,20,09,49,17.70
2014,05,20,09,50,17.80
2014,05,20,09,51,17.80
2014,05,20,09,52,17.90
2014,05,20,09,53,17.90
2014,05,20,09,54,17.90
2014,05,20,09,55,18.00
2014,05,20,09,56,18.10
2014,05,20,09,57,18.10
2014,05,20,09,58,18.10
2014,05,20,09,59,18.10
2014,05,20,10,00,18.10
2014,05,20,10,01,18.10
2014,05,20,10,02,18.10
2014,05,20,10,03,18.10
2014,05,20,10,04,18.10
2014,05,20,10,05,18.10
2014,05,20,10,06,18.10
2014,05,20,10,07,18.10
2014,05,20,10,08,18.20
2014,05,20,10,09,18.10
2014,05,20,10,10,18.10
2014,05,20,10,11,18.00
2014,05,20,10,12,18.00
2014,05,20,10,13,18.00
2014,05,20,10,14,18.00
2014,05,20,10,15,18.10
2014,05,20,10,16,18.10
2014,05,20,10,17,18.10
2014,05,20,10,18,18.10
2014,05,20,10,19,18.10
2014,05,20,10,20,18.00
2014,05,20,10,21,18.10
2014,05,20,10,22,18.10
2014,05,20,10,23,18.10
2014,05,20,10,24,18.10
2014,05,20,10,25,18.20
2014,05,20,10,26,18.10
2014,05,20,10,27,18.10
2014,05,20,10,28,18.10
2014,05,20,10,29,18.20
2014,05,20,10,30,18.20
2014,05,20,10,31,18.10
2014,05,20,10,32,18.00
2014,05,20,10,33,17.90
2014,05,20,10,34,17.90
2014,05,20,10,35,18.00
2014,05,20,10,36,18.00
2014,05,20,10,37,18.10
2014,05,20,10,38,18.10
2014,05,20,10,39,18.10
2014,05,20,10,40,18.10
2014,05,20,10,41,18.10
2014,05,20,10,42,18.10
2014,05,20,10,43,18.10
2014,05,20,10,44,18.20
2014,05,20,10,45,18.20
2014,05,20,10,46,18.20
2014,05,20,10,47,18.20
2014,05,20,10,48,18.20
2014,05,20,10,49,18.10
2014,05,20,10,50,18.10
2014,05,20,10,51,18.00
2014,05,20,10,52,17.90
2014,05,20,10,53,17.90
2014,05,20,10,54,17.90
2014,05,20,10,55,17.80
2014,05,20,10,56,17.80
2014,05,20,10,57,17.80
2014,05,20,10,58,17.80
2014,05,20,10,59,17.90
2014,05,20,11,00,17.90
2014,05,20,11,01,18.00
2014,05,20,11,02,18.00
2014,05,20,11,03,18.00
2014,05,20,11,04,18.10
2014,05,20,11,05,18.10
2014,05,20,11,06,18.20
2014,05,20,11,07,18.20
2014,05,20,11,08,18.30
2014,05,20,11,09,18.40
2014,05,20,11,10,18.50
2014,05,20,11,11,18.60
2014,05,20,11,12,18.60
2014,05,20,11,13,18.70
2014,05,20,11,14,18.70
2014,05,20,11,15,18.70
2014,05,20,11,16,18.60
2014,05,20,11,17,18.60
2014,05,20,11,18,18.60
2014,05,20,11,19,18.50
2014,05,20,11,20,18.50
2014,05,20,11,21,18.60
2014,05,20,11,22,18.70
2014,05,20,11,23,18.80
2014,05,20,11,24,19.00
2014,05,20,11,25,19.10
2014,05,20,11,26,19.10
2014,05,20,11,27,19.20
2014,05,20,11,28,19.20
2014,05,20,11,29,19.30
2014,05,20,11,30,19.30
2014,05,20,11,31,19.30
2014,05,20,11,32,19.30
2014,05,20,11,33,19.30
2014,05,20,11,34,19.20
2014,05,20,11,35,19.20
2014,05,20,11,36,19.30
2014,05,20,11,37,19.30
2014,05,20,11,38,19.30
2014,05,20,11,39,19.30
2014,05,20,11,40,19.30
2014,05,20,11,41,19.30
2014,05,20,11,42,19.30
2014,05,20,11,43,19.30
2014,05,20,11,44,19.20
2014,05,20,11,45,19.30
2014,05,20,11,46,19.30
2014,05,20,11,47,19.40
2014,05,20,11,48,19.40
2014,05,20,11,49,19.40
2014,05,20,11,50,19.40
2014,05,20,11,51,19.40
2014,05,20,11,52,19.50
2014,05,20,11,53,19.50
2014,05,20,11,54,19.50
2014,05,20,11,55,19.60
2014,05,20,11,56,19.60
2014,05,20,11,57,19.50
2014,05,20,11,58,19.40
2014,05,20,11,59,19.40
2014,05,20,12,00,19.30
2014,05,20,12,01,19.40
2014,05,20,12,02,19.50
2014,05,20,12,03,19.50
2014,05,20,12,04,19.70
2014,05,20,12,05,19.80
2014,05,20,12,06,19.80
2014,05,20,12,07,19.80
2014,05,20,12,08,19.80
2014,05,20,12,09,19.80
2014,05,20,12,10,19.70
2014,05,20,12,11,19.70
2014,05,20,12,12,19.80
2014,05,20,12,13,19.80
2014,05,20,12,14,19.80
2014,05,20,12,15,19.80
2014,05,20,12,16,19.80
2014,05,20,12,17,19.80
2014,05,20,12,18,19.80
2014,05,20,12,19,19.80
2014,05,20,12,20,19.80
2014,05,20,12,21,19.80
2014,05,20,12,22,19.70
2014,05,20,12,23,19.70
2014,05,20,12,24,19.70
2014,05,20,12,25,19.70
2014,05,20,12,26,19.70
2014,05,20,12,27,19.80
2014,05,20,12,28,19.90
2014,05,20,12,29,19.90
2014,05,20,12,30,19.90
2014,05,20,12,31,19.90
2014,05,20,12,32,19.90
2014,05,20,12,33,19.90
2014,05,20,12,34,19.80
2014,05,20,12,35,19.80
2014,05,20,12,36,19.80
2014,05,20,12,37,19.90
2014,05,20,12,38,20.00
2014,05,20,12,39,20.10
2014,05,20,12,40,20.20
2014,05,20,12,41,20.20
2014,05,20,12,42,20.30
2014,05,20,12,43,20.30
2014,05,20,12,44,20.30
2014,05,20,12,45,20.40
2014,05,20,12,46,20.40
2014,05,20,12,47,20.30
2014,05,20,12,48,20.20
2014,05,20,12,49,20.20
2014,05,20,12,50,20.20
2014,05,20,12,51,20.20
2014,05,20,12,52,20.30
2014,05,20,12,53,20.30
2014,05,20,12,54,20.40
2014,05,20,12,55,20.40
2014,05,20,12,56,20.40
2014,05,20,12,57,20.30
2014,05,20,12,58,20.30
2014,05,20,12,59,20.20
2014,05,20,13,00,20.10
2014,05,20,13,01,20.10
2014,05,20,13,02,20.10
2014,05,20,13,03,20.00
2014,05,20,13,04,19.90
2014,05,20,13,05,20.00
2014,05,20,13,06,20.00
2014,05,20,13,07,20.10
2014,05,20,13,08,20.10
2014,05,20,13,09,20.10
2014,05,20,13,10,20.10
2014,05,20,13,11,20.10
2014,05,20,13,12,20.20
2014,05,20,13,13,20.20
2014,05,20,13,14,20.20
2014,05,20,13,15,20.20
2014,05,20,13,16,20.20
2014,05,20,13,17,20.20
2014,05,20,13,18,20.20
2014,05,20,13,19,20.20
2014,05,20,13,20,20.20
2014,05,20,13,21,20.30
2014,05,20,13,22,20.30
2014,05,20,13,23,20.30
2014,05,20,13,24,20.30
2014,05,20,13,25,20.40
2014,05,20,13,26,20.40
2014,05,20,13,27,20.30
2014,05,20,13,28,20.20
2014,05,20,13,29,20.20
2014,05,20,13,30,20.30
2014,05,20,13,31,20.30
2014,05,20,13,32,20.20
2014,05,20,13,33,20.20
2014,05,20,13,34,20.30
2014,05,20,13,35,20.20
2014,05,20,13,36,20.10
2014,05,20,13,37,20.10
2014,05,20,13,38,20.00
2014,05,20,13,39,20.00
2014,05,20,13,40,20.10
2014,05,20,13,41,20.10
2014,05,20,13,42,20.20
2014,05,20,13,43,20.20
2014,05,20,13,44,20.30
2014,05,20,13,45,20.40
2014,05,20,13,46,20.50
2014,05,20,13,47,20.50
2014,05,20,13,48,20.60
2014,05,20,13,49,20.60
2014,05,20,13,50,20.70
2014,05,20,13,51,20.70
2014,05,20,13,52,20.90
2014,05,20,13,53,20.90
2014,05,20,13,54,20.70
2014,05,20,13,55,20.70
2014,05,20,13,56,20.80
2014,05,20,13,57,20.80
2014,05,20,13,58,20.90
2014,05,20,13,59,20.90
2014,05,20,14,00,20.80
2014,05,20,14,01,20.70
2014,05,20,14,02,20.60
2014,05,20,14,03,20.50
2014,05,20,14,04,20.60
2014,05,20,14,05,20.60
2014,05,20,14,06,20.50
2014,05,20,14,07,20.40
2014,05,20,14,08,20.20
2014,05,20,14,09,20.10
2014,05,20,14,10,20.10
2014,05,20,14,11,20.00
2014,05,20,14,12,20.00
2014,05,20,14,13,19.90
2014,05,20,14,14,19.90
2014,05,20,14,15,19.90
2014,05,20,14,16,19.90
2014,05,20,14,17,19.90
2014,05,20,14,18,20.00
2014,05,20,14,19,19.90
2014,05,20,14,20,19.90
2014,05,20,14,21,19.90
2014,05,20,14,22,19.90
2014,05,20,14,23,20.00
2014,05,20,14,24,20.00
2014,05,20,14,25,20.10
2014,05,20,14,26,20.20
2014,05,20,14,27,20.30
2014,05,20,14,28,20.30
2014,05,20,14,29,20.50
2014,05,20,14,30,20.50
2014,05,20,14,31,20.60
2014,05,20,14,32,20.60
2014,05,20,14,33,20.50
2014,05,20,14,34,20.40
2014,05,20,14,35,20.40
2014,05,20,14,36,20.30
2014,05,20,14,37,20.30
2014,05,20,14,38,20.30
2014,05,20,14,39,20.30
2014,05,20,14,40,20.30
2014,05,20,14,41,20.40
2014,05,20,14,42,20.40
2014,05,20,14,43,20.50
2014,05,20,14,44,20.50
2014,05,20,14,45,20.40
2014,05,20,14,46,20.40
2014,05,20,14,47,20.40
2014,05,20,14,48,20.50
2014,05,20,14,49,20.60
2014,05,20,14,50,20.60
2014,05,20,14,51,20.50
2014,05,20,14,52,20.40
2014,05,20,14,53,20.30
2014,05,20,14,54,20.30
2014,05,20,14,55,20.30
2014,05,20,14,56,20.30
2014,05,20,14,57,20.50
2014,05,20,14,58,20.70
2014,05,20,14,59,20.80
2014,05,20,15,00,20.90
2014,05,20,15,01,20.90
2014,05,20,15,02,20.90
2014,05,20,15,03,20.80
2014,05,20,15,04,20.70
2014,05,20,15,05,20.60
2014,05,20,15,06,20.50
2014,05,20,15,07,20.60
2014,05,20,15,08,20.60
2014,05,20,15,09,20.60
2014,05,20,15,10,20.60
2014,05,20,15,11,20.60
2014,05,20,15,12,20.60
2014,05,20,15,13,20.60
2014,05,20,15,14,20.70
2014,05,20,15,15,20.60
2014,05,20,15,16,20.50
2014,05,20,15,17,20.50
2014,05,20,15,18,20.40
2014,05,20,15,19,20.40
2014,05,20,15,20,20.50
2014,05,20,15,21,20.60
2014,05,20,15,22,20.70
2014,05,20,15,23,20.70
2014,05,20,15,24,20.80
2014,05,20,15,25,20.80
2014,05,20,15,26,20.80
2014,05,20,15,27,20.80
2014,05,20,15,28,20.80
2014,05,20,15,29,20.80
2014,05,20,15,30,20.80
2014,05,20,15,31,20.80
2014,05,20,15,32,20.80
2014,05,20,15,33,20.80
2014,05,20,15,34,20.90
2014,05,20,15,35,21.00
2014,05,20,15,36,21.00
2014,05,20,15,37,21.10
2014,05,20,15,38,21.10
2014,05,20,15,39,21.10
2014,05,20,15,40,21.10
2014,05,20,15,41,21.10
2014,05,20,15,42,21.10
2014,05,20,15,43,21.10
2014,05,20,15,44,21.10
2014,05,20,15,45,21.10
2014,05,20,15,46,21.10
2014,05,20,15,47,21.10
2014,05,20,15,48,21.10
2014,05,20,15,49,21.20
2014,05,20,15,50,21.10
2014,05,20,15,51,21.10
2014,05,20,15,52,21.00
2014,05,20,15,53,21.00
2014,05,20,15,54,21.00
2014,05,20,15,55,21.00
2014,05,20,15,56,21.00
2014,05,20,15,57,21.00
2014,05,20,15,58,21.10
2014,05,20,15,59,21.10
2014,05,20,16,00,21.10
2014,05,20,16,01,21.10
2014,05,20,16,02,21.10
2014,05,20,16,03,21.10
2014,05,20,16,04,21.10
2014,05,20,16,05,21.20
2014,05,20,16,06,21.20
2014,05,20,16,07,21.30
2014,05,20,16,08,21.30
2014,05,20,16,09,21.30
2014,05,20,16,10,21.30
2014,05,20,16,11,21.30
2014,05,20,16,12,21.30
2014,05,20,16,13,21.20
2014,05,20,16,14,21.20
2014,05,20,16,15,21.20
2014,05,20,16,16,21.10
2014,05,20,16,17,21.10
2014,05,20,16,18,21.10
2014,05,20,16,19,21.30
2014,05,20,16,20,21.30
2014,05,20,16,21,21.30
2014,05,20,16,22,21.30
2014,05,20,16,23,21.40
2014,05,20,16,24,21.40
2014,05,20,16,25,21.50
2014,05,20,16,26,21.60
2014,05,20,16,27,21.70
2014,05,20,16,28,21.80
2014,05,20,16,29,21.80
2014,05,20,16,30,21.90
2014,05,20,16,31,21.90
2014,05,20,16,32,21.70
2014,05,20,16,33,21.60
2014,05,20,16,34,21.50
2014,05,20,16,35,21.40
2014,05,20,16,36,21.40
2014,05,20,16,37,21.30
2014,05,20,16,38,21.30
2014,05,20,16,39,21.30
2014,05,20,16,40,21.30
2014,05,20,16,41,21.20
2014,05,20,16,42,21.20
2014,05,20,16,43,21.30
2014,05,20,16,44,21.30
2014,05,20,16,45,21.30
2014,05,20,16,46,21.40
2014,05,20,16,47,21.30
2014,05,20,16,48,21.40
2014,05,20,16,49,21.40
2014,05,20,16,50,21.40
2014,05,20,16,51,21.50
2014,05,20,16,52,21.50
2014,05,20,16,53,21.50
2014,05,20,16,54,21.50
2014,05,20,16,55,21.30
2014,05,20,16,56,21.20
2014,05,20,16,57,21.20
2014,05,20,16,58,21.30
2014,05,20,16,59,21.30
2014,05,20,17,00,21.30
2014,05,20,17,01,21.30
2014,05,20,17,02,21.30
2014,05,20,17,03,21.30
2014,05,20,17,04,21.30
2014,05,20,17,05,21.20
2014,05,20,17,06,21.20
2014,05,20,17,07,21.20
2014,05,20,17,08,21.20
2014,05,20,17,09,21.10
2014,05,20,17,10,21.10
2014,05,20,17,11,21.10
2014,05,20,17,12,21.10
2014,05,20,17,13,21.10
2014,05,20,17,14,21.20
2014,05,20,17,15,21.20
2014,05,20,17,16,21.20
2014,05,20,17,17,21.20
2014,05,20,17,18,21.10
2014,05,20,17,19,21.10
2014,05,20,17,20,21.00
2014,05,20,17,21,21.00
2014,05,20,17,22,21.10
2014,05,20,17,23,21.00
2014,05,20,17,24,21.00
2014,05,20,17,25,20.90
2014,05,20,17,26,20.80
2014,05,20,17,27,20.70
2014,05,20,17,28,20.70
2014,05,20,17,29,20.70
2014,05,20,17,30,20.80
2014,05,20,17,31,20.80
2014,05,20,17,32,20.80
2014,05,20,17,33,20.80